Date String (YYYY-MM-DD hh:mm:ss) UTC,Instrument flags,Ambient pressure (hPa),Sample flow (lpm),Bypass flow (lpm),Sample temperature (°C),Ambient temperature (°C),ASC tube jacket temperature (°C),LED temperature (°C),Box temperature (°C),Sample RH (%),Span deviation,Mass concentration (μg/m³),Mass concentration (μg/m³),Mass concentration (μg/m³)
DateTimeUTC,F1_M11,P_M11,Q1_M11,Q2_M11,T1_M11,T2_M11,T3_M11,T4_M11,T5_M11,U1_M11,ZSPAN_M11,X0_M11,X2_M11,X1_M11
2023-05-24 12:00:00,,0831.3,5.01,0.00,29.5,27.7,00.0,37.9,31.0,23.3,0003.5,0034.89,0023.01,0021.93
2023-05-24 12:01:00,,0831.3,5.00,0.00,29.5,27.7,00.0,37.9,31.0,23.3,0003.5,0034.76,0023.13,0021.98
2023-05-24 12:02:00,,0831.3,5.00,0.00,29.5,27.7,00.0,37.9,31.0,23.3,0003.5,0034.73,0023.20,0022.02
2023-05-24 12:03:00,,0831.3,5.00,0.00,29.5,27.7,00.0,37.9,31.0,23.5,0003.5,0034.94,0023.24,0022.03
2023-05-24 12:04:00,,0831.3,5.00,0.00,29.5,27.7,00.0,37.9,31.0,23.6,0003.5,0035.16,0023.30,0022.06
2023-05-24 12:05:00,,0831.3,4.99,0.00,29.5,27.7,00.0,37.9,31.0,24.0,0003.5,0035.15,0023.41,0022.16
2023-05-24 12:06:00,,0831.3,4.99,0.00,29.5,27.7,00.0,37.9,31.0,24.4,0003.6,0035.14,0023.53,0022.24
2023-05-24 12:07:00,,0831.3,5.01,0.00,29.5,27.7,00.0,37.9,31.0,24.5,0003.6,0035.41,0023.60,0022.26
2023-05-24 12:08:00,,0831.3,5.00,0.00,29.5,27.7,00.0,37.9,31.0,24.7,0003.6,0035.57,0023.63,0022.21
2023-05-24 12:09:00,,0831.3,5.00,0.00,29.5,27.7,00.0,37.9,31.0,24.6,0003.7,0035.74,0023.67,0022.18
2023-05-24 12:10:00,,0831.3,5.00,0.00,29.5,27.7,00.0,37.9,31.0,24.6,0003.8,0035.77,0023.72,0022.17
2023-05-24 12:11:00,,0831.3,5.00,0.00,29.5,27.6,00.0,37.9,31.0,24.7,0003.8,0035.65,0023.72,0022.18
2023-05-24 12:12:00,,0831.3,5.00,0.00,29.5,27.7,00.0,37.9,31.0,25.1,0003.8,0036.00,0023.62,0022.15
2023-05-24 12:13:00,,0831.3,5.01,0.00,29.5,27.7,00.0,37.9,31.0,25.3,0003.9,0036.11,0023.53,0022.07
2023-05-24 12:14:00,,0831.4,5.01,0.00,29.5,27.7,00.0,37.9,31.0,25.5,0003.8,0036.55,0023.51,0022.03
2023-05-24 12:15:00,,0831.3,5.01,0.00,29.5,27.7,00.0,37.9,31.0,25.6,0003.8,0036.89,0023.50,0022.00
2023-05-24 12:16:00,,0831.3,5.00,0.00,29.5,27.7,00.0,37.8,31.0,25.8,0003.7,0037.30,0023.40,0021.90
2023-05-24 12:17:00,,0831.3,4.99,0.00,29.5,27.7,00.0,37.8,31.0,25.7,0003.7,0037.10,0023.33,0021.85
2023-05-24 12:18:00,,0831.3,5.00,0.00,29.5,27.7,00.0,37.8,31.0,25.7,0003.7,0036.93,0023.29,0021.82
2023-05-24 12:19:00,,0831.3,4.99,0.00,29.5,27.7,00.0,37.8,31.0,25.8,0003.7,0036.46,0023.17,0021.76
2023-05-24 12:20:00,,0831.4,5.00,0.00,29.5,27.7,00.0,37.8,31.0,26.0,0003.6,0036.44,0023.11,0021.69
2023-05-24 12:21:00,,0831.4,5.00,0.00,29.5,27.7,00.0,37.8,31.0,26.2,0003.5,0036.43,0023.05,0021.59
2023-05-24 12:22:00,,0831.4,5.00,0.00,29.5,27.7,00.0,37.8,31.0,26.3,0003.5,0036.60,0023.01,0021.48
2023-05-24 12:23:00,,0831.5,5.01,0.00,29.5,27.7,00.0,37.8,31.0,26.4,0003.5,0036.79,0023.02,0021.37
2023-05-24 12:24:00,,0831.4,5.00,0.00,29.5,27.7,00.0,37.8,31.0,26.5,0003.5,0036.65,0023.05,0021.28
2023-05-24 12:25:00,,0831.4,4.99,0.00,29.5,27.7,00.0,37.8,31.0,26.8,0003.5,0036.08,0022.92,0021.13
2023-05-24 12:26:00,,0831.4,4.99,0.00,29.5,27.8,00.0,37.8,31.1,27.1,0003.6,0035.98,0022.79,0020.93
2023-05-24 12:27:00,,0831.4,5.00,0.00,29.5,27.8,00.0,37.8,31.1,26.9,0003.6,0036.20,0022.70,0020.77
2023-05-24 12:28:00,,0831.4,5.00,0.00,29.5,27.8,00.0,37.8,31.1,27.4,0003.5,0036.42,0022.57,0020.49
2023-05-24 12:29:00,,0831.4,5.01,0.00,29.5,27.8,00.0,37.8,31.1,27.3,0003.5,0036.69,0022.43,0020.30
2023-05-24 12:30:00,,0831.4,5.00,0.00,29.5,27.8,00.0,37.8,31.1,27.3,0003.6,0037.90,0022.35,0020.16
2023-05-24 12:31:00,,0831.5,5.00,0.00,29.5,27.8,00.0,37.8,31.1,27.1,0003.6,0038.14,0022.26,0020.03
2023-05-24 12:32:00,,0831.4,5.00,0.00,29.5,27.8,00.0,37.9,31.1,27.0,0003.7,0039.09,0022.21,0019.94
2023-05-24 12:33:00,,0831.5,4.99,0.00,29.5,27.8,00.0,37.9,31.1,27.0,0003.8,0040.10,0022.14,0019.88
2023-05-24 12:34:00,,0831.5,5.00,0.00,29.5,27.8,00.0,37.8,31.1,26.9,0003.9,0040.84,0022.08,0019.83
2023-05-24 12:35:00,,0831.5,5.00,0.00,29.5,27.8,00.0,37.9,31.1,26.9,0003.8,0041.16,0022.00,0019.75
2023-05-24 12:36:00,,0831.5,4.99,0.00,29.5,27.8,00.0,37.9,31.1,27.0,0003.8,0042.81,0021.98,0019.67
2023-05-24 12:37:00,,0831.5,5.00,0.00,29.5,27.8,00.0,37.9,31.1,27.2,0003.8,0043.27,0021.96,0019.65
2023-05-24 12:38:00,,0831.5,5.02,0.00,29.5,27.8,00.0,37.9,31.1,27.4,0003.8,0043.09,0021.90,0019.60
2023-05-24 12:39:00,,0831.5,5.01,0.00,29.5,27.8,00.0,37.9,31.1,27.5,0003.8,0043.58,0021.81,0019.61
2023-05-24 12:40:00,,0831.6,5.00,0.00,29.5,27.8,00.0,37.9,31.1,27.6,0003.8,0043.86,0021.82,0019.60
2023-05-24 12:41:00,,0831.5,4.99,0.00,29.5,27.8,00.0,37.9,31.1,27.8,0003.7,0043.08,0021.86,0019.59
2023-05-24 12:42:00,,0831.6,4.99,0.00,29.5,27.8,00.0,37.9,31.1,27.9,0003.8,0043.08,0021.71,0019.52
2023-05-24 12:43:00,,0831.6,5.00,0.00,29.5,27.8,00.0,37.9,31.1,27.6,0003.7,0042.27,0021.58,0019.46
2023-05-24 12:44:00,,0831.6,5.01,0.00,29.5,27.8,00.0,37.9,31.1,27.7,0003.7,0040.90,0021.47,0019.37
2023-05-24 12:45:00,,0831.6,5.01,0.00,29.5,27.8,00.0,37.9,31.1,27.7,0003.6,0040.63,0021.34,0019.28
2023-05-24 12:46:00,,0831.6,5.00,0.00,29.5,27.8,00.0,37.9,31.1,27.6,0003.6,0039.88,0021.24,0019.23
2023-05-24 12:47:00,,0831.6,5.00,0.00,29.5,27.8,00.0,37.9,31.1,27.4,0003.7,0038.22,0021.20,0019.25
2023-05-24 12:48:00,,0831.6,5.00,0.00,29.5,27.8,00.0,37.9,31.1,27.2,0003.7,0037.55,0021.18,0019.26
2023-05-24 12:49:00,,0831.6,5.01,0.00,29.5,27.7,00.0,37.9,31.0,27.2,0003.6,0037.22,0021.14,0019.30
2023-05-24 12:50:00,,0831.6,5.00,0.00,29.5,27.7,00.0,37.9,31.0,27.3,0003.6,0036.29,0021.13,0019.30
2023-05-24 12:51:00,,0831.6,5.00,0.00,29.5,27.7,00.0,37.9,31.0,27.3,0003.6,0035.76,0021.09,0019.33
2023-05-24 12:52:00,,0831.6,5.00,0.00,29.5,27.8,00.0,37.9,31.0,27.2,0003.6,0035.69,0021.05,0019.36
2023-05-24 12:53:00,,0831.6,5.00,0.00,29.5,27.8,00.0,37.9,31.0,27.0,0003.5,0035.74,0021.17,0019.42
2023-05-24 12:54:00,,0831.6,4.99,0.00,29.5,27.8,00.0,37.9,31.0,27.2,0003.5,0036.50,0021.20,0019.47
2023-05-24 12:55:00,,0831.6,5.00,0.00,29.5,27.8,00.0,37.9,31.0,27.6,0003.6,0036.96,0021.21,0019.51
2023-05-24 12:56:00,,0831.6,4.99,0.00,29.5,27.8,00.0,37.8,31.0,27.2,0003.6,0037.01,0021.30,0019.57
2023-05-24 12:57:00,,0831.6,5.00,0.00,29.5,27.8,00.0,37.8,31.0,26.9,0003.5,0036.56,0021.41,0019.65
2023-05-24 12:58:00,,0831.6,4.99,0.00,29.5,27.8,00.0,37.8,31.0,26.0,0003.5,0036.24,0021.50,0019.77
2023-05-24 12:59:00,,0831.5,4.99,0.00,29.5,27.7,00.0,37.8,31.0,25.1,0003.5,0036.30,0021.65,0019.92
